Regional Weather Roundup
Issued by NWS

Home | Current Version | Previous Version | Text Only | Print | Product List | Glossary Off
Versions: 1 2 3 4 5 6 7 8 9 10 11 12 13 14 15 16 17 18 19 20 21 22 23 24 25 26 27 28 29 30 31 32 33 34 35 36 37 38 39 40 41 42 43 44 45 46 47 48 49 50

000
ASUS44 KMEG 221610
RWRTN
TENNESSEE HOURLY STATE WEATHER ROUNDUP
NATIONAL WEATHER SERVICE MEMPHIS TN
1000 AM CST MON DEC 22 2014

TNZ002-004-019-021-049-052-054-088>092-221700-
WEST TENNESSEE

CITY           SKY/WX    TMP DP  RH WIND       PRES   REMARKS
MEMPHIS INTL   CLOUDY    54  50  87 S9        29.79F FOG
NWS MEMPHIS      N/A     52 N/A N/A MISG        N/A
JACKSON        CLOUDY    53  48  83 SE10      29.82F
DYERSBURG      CLOUDY    52  37  58 SE6       29.82F
UNION CITY     CLOUDY    48  46  93 S9        29.80F
PARIS          CLOUDY    48  45  87 S10       29.84F
HUNTINGDON     CLOUDY    50  46  85 SE8       29.83F
LEXINGTON      CLOUDY    52  46  82 S5        29.84F
SAVANNAH       CLOUDY    52  48  87 SE9       29.86F
$$

TNZ008-025-027-028-033-062-065-066-221700-
NORTH MIDDLE TENNESSEE

CITY           SKY/WX    TMP DP  RH WIND       PRES   REMARKS
NASHVILLE      CLOUDY    52  45  77 S13       29.91F
CLARKSVILLE    CLOUDY    51  46  83 SE15      29.87F
SMYRNA         CLOUDY    53  45  74 SE13      29.92F
COOKEVILLE     MOSUNNY   52  45  76 S13       29.93F
CROSSVILLE     CLOUDY    48  40  73 VRB7      29.95F
$$

TNZ061-075-076-078-094-096-097-221700-
SOUTH MIDDLE TENNESSEE

CITY           SKY/WX    TMP DP  RH WIND       PRES   REMARKS
FAYETTEVILLE   CLOUDY    48  45  87 MISG      29.91F
TULLAHOMA      CLOUDY    48  43  81 S13       29.93S
WINCHESTER     CLOUDY    48  45  87 SE8       29.94R
MCMINNVILLE    CLOUDY    52  46  82 CALM      29.92F
COLUMBIA       CLOUDY   N/A N/A N/A S8        29.88F
SHELBYVILLE    CLOUDY    52  46  82 SE7       29.92F
$$

TNZ017-018-042-046-047-221700-
NORTHEAST TENNESSEE

CITY           SKY/WX    TMP DP  RH WIND       PRES   REMARKS
TRI CITIES     MOSUNNY   50  40  68 E7        30.03F
ELIZABETHTON   SUNNY     52  39  62 SE8       30.03S
$$

TNZ012-013-036-069-073-074-221700-
CENTRAL EAST TENNESSEE

CITY           SKY/WX    TMP DP  RH WIND       PRES   REMARKS
KNOXVILLE      MOSUNNY   51  40  65 N6        29.98F
OAK RIDGE      CLOUDY    49  38  65 NE5       30.01F
GATLINBURG     SUNNY     46  37  71 NE5       29.99F
MORRISTOWN     SUNNY     52  41  66 E9        29.99F
$$

TNZ083-085-099-221700-
SOUTHEAST TENNESSEE

CITY           SKY/WX    TMP DP  RH WIND       PRES   REMARKS
CHATTANOOGA    CLOUDY    49  44  83 CALM      29.99F
$$

SKY/WX REPORTED AS FAIR MEANS FEW OR NO CLOUDS BELOW
12 THOUSAND FEET.




USA.gov is the U.S. government's official web portal to all federal, state and local government web resources and services.